Aeroporto :
LOGIN :

Iscrizione | Disclaimer

   EN    FR    IT 

 










Sommario :    VFR   VFR Marginale   IFR   IFR Intensivo   IFR Molto Intensivo
Visibilità : 
Base nubi : 
>= 8 km
>= 3000ft
5 / 8 km
1000 / 3000 ft
1500m / 5 km
500 / 1000 ft
800 / 1500m
200 / 500 ft
< 800m
< 200 ft
Simboli :   Temporali  Nebbia  Neve Forte  Precipitazioni Forti  Vento > 20 kt
SIGMETs :   Varie  Temporali  Ghiacco  Turbolenza  Onda orograficha  Ceneri Vulcaniche







- Altitudine del aeroporto : 161 ft
- Codice IATA : PMF


LIMP - Parma

ULTIMO METAR :
  • 201250Z 35003KT 9999 SCT030 07/M01 Q1009

METARs OBSOLETI :
  • 201150Z VRB02KT 9999 SCT030 06/M00 Q1010
  • 201050Z VRB02KT CAVOK 06/M01 Q1011

TAF TAF LIMP
Valido dal 20 a 12 ore il 21 a 12 ore UTC


201100Z 2012/2112 VRB05KT 9999 SCT030
TEMPO 2100/2106 RASN
Nessun NOTAM noto per questo aeroporto.
2 SIGMETs conosciuti per la FIR Milano (LIMM) :
 
Turbolenza severa
LIMM SIGMET 4 VALID 201315/201715 LIIP
LIMM MILANO FIR SEV TURB FCST W OF LINE N4649 E01251 - N4327 E01215 FL200/340 STNR NC=
Turbolenza severa
LIMM SIGMET 3 VALID 200915/201315 LIIP
LIMM MILANO FIR SEV TURB FCST W OF LINE N4649 E01251 - N4327 E01215 FL200/340 STNR NC=



MetMap, La meteo Aeronautica in un colpo d'occhio ! - Copyright ORBIFLY Dicembre 2007 - Disclaimer

ORBIFLY MET'MAP TEAM :

Programmazione e sviluppo : Alexandra Zaïnal
Concezione e sviluppo : Baudouin d'Aumeries
Co-Programmazione e sviluppo : Marc-Olivier Méhu
Supporto tecnico e logistico : Manuel Goepfert
Aiuto per la traduzione : Arnaldo La Scala

Contatto : metmap@orbifly.com




FONTI E CREDITI :

   NOAA